Location: Newark
(44.3248°N, 23.7839°E)
Time: 03:29:37
(UTC+00:00)

SPROUT - Visible Passes

Search period start: 16 April 2024 00:00
Search period end: 26 April 2024 00:00
Orbit: 474 x 479 km, 98.0° (Epoch: 15 April)

Date Brightness Start Highest point End Pass type
(mag) Time Alt. Az. Time Alt. Az. Time Alt. Az.
16 Apr ? 00:56:31 40° NNE 00:56:31 40° NNE 00:59:02 10° N visible
17 Apr ? 00:29:07 26° ENE 00:29:07 26° ENE 00:31:44 10° N visible
17 Apr ? 02:03:17 16° WNW 02:03:17 16° WNW 02:04:37 10° NW visible
18 Apr ? 00:01:31 13° ENE 00:01:48 13° ENE 00:03:36 10° NNE visible
18 Apr ? 01:35:41 33° NW 01:35:41 33° NW 01:38:02 10° NNW visible
19 Apr ? 01:07:52 58° N 01:07:52 58° N 01:10:49 10° N visible
20 Apr ? 00:39:53 34° ENE 00:39:53 34° ENE 00:43:02 10° N visible
20 Apr ? 02:14:01 14° WNW 02:14:01 14° WNW 02:15:16 10° NW visible
21 Apr ? 00:11:41 16° ENE 00:12:16 17° ENE 00:14:35 10° NNE visible
21 Apr ? 01:45:48 30° WNW 01:45:48 30° WNW 01:48:24 10° NNW visible
22 Apr ? 01:17:25 73° NW 01:17:25 73° NW 01:20:43 10° NNW visible
23 Apr ? 00:48:49 42° E 00:49:06 43° ENE 00:52:27 10° N visible
23 Apr ? 02:22:54 12° W 02:22:54 12° W 02:23:57 10° WNW visible
24 Apr ? 00:20:03 18° E 00:20:57 20° ENE 00:23:34 10° NNE visible
24 Apr ? 01:54:07 26° W 01:54:07 26° W 01:56:55 10° NW visible
25 Apr ? 01:25:08 62° WSW 01:25:17 63° WSW 01:28:47 10° NNW visible
